Regional Weather Roundup
Issued by NWS Newport/Morehead, NC

Current Version | Previous Version | Text Only | Print | Product List | Glossary Off
Versions: 1 2 3 4 5 6 7 8 9 10 11 12 13 14 15 16 17 18 19 20 21 22 23 24 25 26 27 28 29 30 31 32 33 34 35 36 37 38 39 40 41 42 43 44 45 46 47 48 49 50
000 ASUS42 KMHX 190426 RWRMHX WEATHER ROUNDUP FOR EASTERN NORTH CAROLINA NATIONAL WEATHER SERVICE NEWPORT/MOREHEAD CITY NC 1200 AM EDT SAT AUG 19 2017 NOTE: "FAIR" INDICATES FEW OR NO CLOUDS BELOW 12,000 FEET WITH NO SIGNIFICANT WEATHER AND/OR OBSTRUCTIONS TO VISIBILITY NCZ015>017-031-032-045>047-102-103-190500- NORTH COAST CITY SKY/WX TMP DP RH WIND PRES REMARKS EDENTON FAIR 83 79 87 CALM 29.91S ELIZABETH CITY FAIR 82 80 94 S9 29.90S KITTY HAWK FAIR 82 78 87 CALM 29.91R MANTEO FAIR 82 79 90 SW15 29.92S $$ NCZ045>047-081-094-103-104-190500- CENTRAL COAST CITY SKY/WX TMP DP RH WIND PRES REMARKS FRISCO FAIR 84 82 94 SW12 29.94F HX 100 $$ NCZ095-097-098-100-101-190500- SOUTHERN COAST CITY SKY/WX TMP DP RH WIND PRES REMARKS BEAUFORT CLOUDY 83 82 97 SW17 29.94S CEDAR ISLAND NOT AVBL JACKSONVILLE FAIR 81 79 94 SW7 29.92F PINEY ISLAND FAIR N/A N/A N/A S12 29.93S WILMINGTON FAIR 83 79 88 SW7 29.93S $$ NCZ011>013-027>030-043-044-078>080-089-090>093-098-190500- COASTAL PLAIN CITY SKY/WX TMP DP RH WIND PRES REMARKS AHOSKIE N/A 79 78 96 CALM 29.90R CLINTON FAIR 81 80 95 S3 29.92S ELIZABETHTOWN NOT AVBL GOLDSBORO CLEAR 82 82 100 S6 29.90R GREENVILLE FAIR 82 79 89 SW7 29.93S HAVELOCK FAIR 83 79 88 SW10 29.94S KENANSVILLE FAIR 81 77 89 CALM 29.92S KINSTON FAIR 82 76 83 S8 29.92S NEW BERN FAIR 80 79 96 S6 29.93F RICHLANDS FAIR 79 77 94 S7 29.93S ROCKY MOUNT FAIR 82 77 84 SW7 29.90R WASHINGTON FAIR 82 77 86 S5 29.91S WHITEVILLE FAIR 81 76 85 S5 29.93S $$ AMZ130-135-150-152-154-156-158-170-250-252-270-ANZ085-086-088-633-658-670-190500- MARINE OBSERVATIONS STATION/POSITION TIME TEMP WIND PRES WAVE SWELL AIR SEA DIR/SP/G HT/PER HT/PER (UTC) (F) (DEG/KT/KT) (MB) (FT/S) (FT/S) CHESAPEAKE LIGHT NOT AVBL 64 E VA BEACH 0350 80 77 200/ 14/ 16 1013.0 4/ 5 2/ 7 DUCK 0400 83 73 190/ 12/ 16 1012.0 2 E DUCK 0400 78 N/A 2/ 9 OREGON INLET 0400 83 79 190/ 17/ 21 1013.0 13E OREGON INLT 0348 80 N/A 3/ 5 2/10 HATTERAS CG 0400 83 84 210/ 8/ 13 1013.7 DIAMOND BUOY 0350 85 85 220/ 19/ 21 1013.9 5/ 6 CAPE LOOKOUT 0400 83 230/ 11/ 14 1013.7 BEAUFORT LAB 0400 84 82 220/ 6/ 12 1013.3 30 SE NEW RVR IN 0408 81 84 230/ 16/ 21 1014.1 30 SE NEW RVR IN 0413 84 N/A 5/ 5 27 SE WRIGHTSVLE 0408 84 83 210/ 16/ 21 1013.9 5 SE WRIGHTSVLE 0408 84 84 210/ 12/ 19 1013.8 225 S CAPE HAT 0350 84 84 210/ 14/ 17 1016.6 3/ 8 2/ 8 41 SE CHARLESTON 0400 84 85 220/ 16/ 19 1014.2 $$

USA.gov is the U.S. government's official web portal to all federal, state and local government web resources and services.